Location: Marcé
(47.5801°N, 0.3280°W)
Time: 15:39:51
(UTC+01:00)

SR - Pass Details

Date: 03 December 2021
Orbit: 582 x 872 km, 66.7° (Epoch: 22 January)

Event Time Altitude Azimuth Distance (km) Brightness Sun altitude
Exits shadow 08:20:44 -1° 329° (NNW) 2,875 ? -2.3°
Rises 08:20:53 0° 330° (NNW) 2,816 ? -2.3°
Reaches altitude 10° 08:23:13 10° 339° (NNW) 1,921 ? -1.9°
Maximum altitude 08:27:13 37° 47° (NE) 942 ? -1.4°
Drops below altitude 10° 08:31:22 10° 116° (ESE) 1,994 ? -0.8°
Sets 08:33:50 0° 125° (SE) 2,938 ? -0.4°
